STARLINK-5919, 55927

Orbit data source: Space-Track

STARLINK-5919, 55927 is a payload satellite owned by SpaceX/Seattle (US) in LEO that was launched on Fri, 17 Mar 2023 UTC via an FALCON 9 launch vehicle from the Air Force Western Test Range (AFWTR). Payload-class satellites include a variety of spacecraft equipped with specific instruments for various scientific and technological missions. These include communications satellites like Starlink; space stations such as the ISS; scientific satellites like the Hubble; Earth observation satellites from companies like Planet Labs, Umbra, and HawkEye 360; GPS; miniature CubeSats for education and research; and military/defense satellites.

Loading next visibility...
Identifier
55927, 2023-037P
Orbit
LEO
Country
Flag of USUS
Related business
Manufacturer
SpaceX/Seattle
Mission
Operational Commercial Communications
Bus & Motor
STARLINK, Unknown motor
Mass
305 kg wet, ~290 kg dry
Launch date (UTC)
2023-03-17 (3 years ago)
Launch vehicle
FALCON 9
Launch site
Air Force Western Test Range (AFWTR)
Object type
Payload
Rocket body
Debris
Shape & HBR
Box + 1 Pan, 10.1 m
Radar Cross Section
11.087 m², Large (>1 m²)

Expand to show TLE details & history
Last TLE update: 17 hours ago

TLE from 17 hours ago
0 STARLINK-5919
1 55927U 23037P   25350.19543162  .00001250  00000-0  11249-3 0  9997
2 55927  69.9991 154.8491 0002908 271.1235  88.9591 14.98339496150984
Epoch: 2025-12-16T04:41Z
TLE epoch observation values (Epoch: 2025-12-16T04:41:25.291Z)
Latitude
-0.00004°
Longitude
-0.58942°
Altitude
574.414 km
Speed
7.574 km/s
True Right ascension
10h 19m 23s
True Declination
0° 00' 00"
Sunlit
Object was in daylight at epoch
Visualization orbit readout
Latitude
Unknown
Longitude
Unknown
Altitude
Unknown
Speed
Unknown
Apparent Right ascension
Unknown
Apparent Declination
Unknown
Sunlit
N/A
Visualization observer readout
Local Sidereal Time
20:44:13
Azimuth
Unknown
Elevation
Unknown
Doppler factor
Unknown
Orbital elements
Apogee altitude
571.995 km
Perigee altitude
567.954 km
Semi-major axis
6,948.112 km
Eccentricity
0.00029
Inclination
69.9991°
RAAN
154.8491°
Arg. of periapsis
271.1235°
True anomaly
88.99242°
Mean anomaly
88.9591°
Eccentric anomaly
88.97576°
Mean motion
3.74751 °/min
Orbital period
96.06 mins
BSTAR
0.00011249
Loading maneuver chart data...
Computing Atmospheric mass density...
Loading historical data...
Loading historical data...
Loading historical data...
Loading historical data...
Loading historical data...
Loading historical data...
Loading historical data...

Documentation

Showing up to 5 results
|